Location: Energy
(40.9295°N, 80.2648°W)
Time: 15:23:10
(UTC+00:00)

Daily predictions for brighter satellites

Satellite Brightness Start Highest point End
(mag) Time Altitude Azimuth Time Altitude Azimuth Time Altitude Azimuth
Cosmos 1953 Rocket 4.4 23:05:00 10° NNE 23:08:52 29° ENE 23:12:40 10° SE
CZ-4 R/B 2.0 23:05:41 10° SE 23:09:29 36° ENE 23:13:20 10° N
Cosmos 1242 Rocket 4.3 23:08:21 10° NNE 23:10:33 15° ENE 23:12:45 10° ESE
USA 116 4.4 23:08:19 10° NE 23:10:53 22° E 23:13:30 10° SSE
Unknown 3.9 23:07:33 10° WSW 23:11:39 71° NW 23:15:48 10° NE
Unknown 3.9 23:09:10 10° WSW 23:13:17 69° NW 23:17:26 10° NE
SMAP 4.0 23:09:15 10° S 23:13:47 54° W 23:18:22 10° NNW
Unknown 4.1 23:11:07 10° WSW 23:15:12 61° NW 23:19:19 10° NE
Unknown 4.0 23:12:30 10° WSW 23:16:36 65° NW 23:20:44 10° NE
Cosmos 1470 3.1 23:13:12 10° SSW 23:17:11 75° W 23:21:10 10° N
Unknown 4.0 23:14:13 10° WSW 23:18:19 62° NW 23:22:25 10° NE
Cosmos 1606 Rocket 3.6 23:16:13 10° S 23:20:32 58° E 23:24:51 10° NNE
Unknown 4.1 23:17:31 10° WSW 23:21:36 59° NW 23:25:42 10° NE
Cosmos 1486 Rocket 4.1 23:16:46 10° NNW 23:22:07 86° WSW 23:27:26 10° SSE
Unknown 4.2 23:19:15 10° WSW 23:23:19 57° NW 23:27:25 10° NE
Unknown 4.2 23:20:55 10° WSW 23:24:58 56° NW 23:29:04 10° NE
Unknown 4.3 23:22:37 10° WSW 23:26:40 54° NNW 23:30:45 10° NE
Cosmos 1354 Rocket 4.2 23:21:34 10° N 23:26:41 52° ENE 23:31:46 10° SE
YAOGAN 6 2.7 23:24:22 10° SSE 23:27:58 53° ENE 23:31:33 10° N
Unknown 4.4 23:25:58 10° WSW 23:30:00 51° NNW 23:34:03 10° NE
Cosmos 1758 Rocket 3.6 23:26:16 10° N 23:30:43 85° E 23:35:11 10° S
Meteor 1-16 Rocket 4.4 23:25:24 10° SSE 23:30:47 49° E 23:36:04 10° NNE
Unknown 4.4 23:27:44 10° WSW 23:31:44 48° NNW 23:35:46 10° NE
BREEZE-M DEB (TANK) 3.4 23:25:44 10° SW 23:31:55 45° SSE 23:33:59 16° ENE
Cosmos 1844 Rocket 2.7 23:27:15 10° SSW 23:32:55 87° ESE 23:38:36 10° NNE
Meteor 1-21 Rocket 4.3 23:30:19 10° N 23:36:15 85° E 23:42:02 10° S
ASTEX 1 3.3 23:35:01 10° N 23:39:57 76° E 23:44:55 10° S
Abrixas rocket 4.2 23:38:58 10° SSE 23:40:14 12° SE 23:40:16 12° SE
Cosmos 968 Rocket 3.4 23:36:05 10° NNW 23:41:24 80° ENE 23:46:39 10° SSE
Ariane Rocket 3.7 23:37:04 10° SE 23:41:34 32° ENE 23:46:04 10° N
Meteor 2-10 4.2 23:37:31 10° SSE 23:42:23 45° E 23:47:11 10° NNE
SKYMED 2 3.9 23:39:51 10° N 23:44:10 70° WNW 23:48:29 10° SSW
Cosmos 2278 Rocket 3.1 23:42:30 10° SSE 23:47:09 27° ESE 23:51:48 10° NE
YAOGAN 1 2.5 23:43:24 10° SSE 23:47:42 76° ENE 23:52:02 10° N
Shenzhou-11 Module 1.6 23:46:12 10° WSW 23:48:58 89° N 23:50:06 31° ENE
Cosmos 1844 3.8 23:44:15 10° SSW 23:49:56 87° WNW 23:55:43 10° NNE
Cosmos 2285 Rocket 4.1 23:43:39 10° NNW 23:50:08 88° WSW 23:56:32 10° SSE
Cosmos 1992 Rocket 4.4 23:46:31 10° SSW 23:51:43 67° WNW 23:56:56 10° NNE
SL-4 R/B 1.9 23:48:44 10° NW 23:52:30 55° NNE 23:54:12 27° E
Cosmos 1503 Rocket 4.0 23:47:26 10° NNW 23:52:38 84° WSW 23:57:47 10° SSE
OAO 2 Rocket 4.1 23:48:00 10° WSW 23:53:01 44° S 23:56:17 20° ESE
ADEOS Rocket 4.4 23:48:20 10° NE 23:54:07 23° E 23:59:36 10° SE
CZ-2D R/B 3.4 23:50:45 10° SSE 23:54:25 47° ENE 23:58:08 10° N
